Torna al catalogo

NOAA 17 DEB

AttivoPO
NORAD 48724·DEBRIS·🇺🇸 United States

Lanciato Jun 24, 2002 da Vandenberg Space Force Base

Loading…

Prossimi Passaggi (prossime 24 ore)

TLE

AggiornatoSource: Space-Track

Epoca: Sep 14, 2026, 09:52 UTC

1 48724U 02032BH  26257.41164818  .00007308  00000-0  10149-2 0  9992
2 48724  98.7358 308.4097 0021655  20.8109 339.3976 14.78067249290983

Traccia NOAA 17 DEB in tempo reale con AllMySat

Download on the App Store